Weather History for Tel Aviv, Israel

Change the Weather History Date:

Saturday, December 8, 2012

  Actual Average Record
Temperature  
Mean Temperature 60 °F -  
Max Temperature 64 °F 64 °F 78 °F (2002)
Min Temperature 57 °F 49 °F 50 °F (2006)
Degree Days  
Heating Degree Days 4    
Growing Degree Days 10 (Base 50)    
Moisture  
Dew Point 54 °F    
Average Humidity 77    
Maximum Humidity 88    
Minimum Humidity 63    
Precipitation  
Precipitation 0.08 in - - ()
Sea Level Pressure  
Sea Level Pressure 30.04 in    
Wind  
Wind Speed 7 mph ()    
Max Wind Speed 15 mph    
Max Gust Speed -    
Visibility 5.7 miles    
Events Rain    
Averages and records for this station are not official NWS values.
T = Trace of Precipitation, MM = Missing Value Source: Averaged Metar Reports

Daily Weather History Graph

Daily Weather History Graph

Search for Another Location

Airport:

Trip Planner

Search our weather history database for the weather conditions in past years. The results will help you decide how hot, cold, wet, or windy it might be!

Date:

Astronomy

Dec. 08, 2012 Rise Set
Actual Time 6:28 AM IST 4:36 PM IST
Civil Twilight 6:01 AM IST 5:02 PM IST
Nautical Twilight 5:31 AM IST 5:33 PM IST
Astronomical Twilight 5:01 AM IST 6:03 PM IST
Moon 12:47 AM IST (12/8) 12:39 PM IST (12/8)
Length of Visible Light 11h 01m
Length of Day
10h 07m
Waning Crescent, 31% of the Moon is Illuminated
Dec 8
Waning Crescent
Dec 13
New
Dec 20
First Quarter
Dec 28
Full
Jan 5
Last Quarter

Hourly Weather History & Observations

Time (IST) Temp. Dew Point Humidity Pressure Visibility Wind Dir Wind Speed Gust Speed Precip Events Conditions
12:50 AM 59.0 °F 51.8 °F 77% 29.98 in 6.2 mi South 11.5 mph - N/A   Mostly Cloudy
1:37 AM 59.0 °F 53.6 °F 82% 30.01 in 5.0 mi WNW 15.0 mph - N/A Rain Rain
1:50 AM 59.0 °F 53.6 °F 82% 30.01 in 6.2 mi WNW 9.2 mph - N/A Rain Rain
2:00 AM 60 °F 55 °F 77% 30.01 in 6 mi WNW 9.2 mph - - Rain Rain
2:09 AM 59.0 °F 53.6 °F 82% 30.01 in - NNW 3.5 mph - N/A   Mostly Cloudy
2:50 AM 60.8 °F 55.4 °F 82% 29.98 in 6.2 mi SSE 5.8 mph - N/A   Mostly Cloudy
3:50 AM 59.0 °F 55.4 °F 88% 29.98 in 6.2 mi SSE 8.1 mph - N/A   Mostly Cloudy
4:50 AM 57.2 °F 53.6 °F 88% 30.01 in 6.2 mi South 6.9 mph - N/A   Mostly Cloudy
5:50 AM 57.2 °F 53.6 °F 88% 30.01 in 6.2 mi SE 8.1 mph - N/A   Mostly Cloudy
6:50 AM 57.2 °F 53.6 °F 88% 30.04 in 6.2 mi SSE 8.1 mph - N/A   Partly Cloudy
7:50 AM 59.0 °F 51.8 °F 77% 30.04 in 6.2 mi SSE 5.8 mph - N/A   Partly Cloudy
8:00 AM 59 °F 52 °F 70% 30.06 in 6 mi SSE 5.8 mph - -   Partly Cloudy
8:50 AM 60.8 °F 53.6 °F 77% 30.06 in 6.2 mi South 15.0 mph - N/A   Mostly Cloudy
9:50 AM 60.8 °F 53.6 °F 77% 30.09 in 5.0 mi West 6.9 mph - N/A Rain Light Rain
9:55 AM 60.8 °F 53.6 °F 77% 30.09 in 3.1 mi West 6.9 mph - N/A Rain Light Rain
9:59 AM 60.8 °F 53.6 °F 77% 30.09 in 1.9 mi West 4.6 mph - N/A Rain Rain
10:19 AM 60.8 °F 53.6 °F 77% 30.09 in 3.7 mi SSE 9.2 mph - N/A   Mostly Cloudy
10:50 AM 60.8 °F 55.4 °F 82% 30.06 in 6.2 mi SE 11.5 mph - N/A   Mostly Cloudy
11:50 AM 60.8 °F 55.4 °F 82% 30.06 in 6.2 mi South 8.1 mph - N/A   Mostly Cloudy
12:50 PM 62.6 °F 53.6 °F 72% 30.04 in 6.2 mi South 9.2 mph - N/A   Mostly Cloudy
1:50 PM 62.6 °F 53.6 °F 72% 30.04 in 6.2 mi South 10.4 mph - N/A   Mostly Cloudy
2:00 PM 63 °F 53 °F 63% 30.05 in 6 mi South 10.4 mph - -   Partly Cloudy
2:50 PM 64.4 °F 53.6 °F 68% 30.04 in 6.2 mi SE 8.1 mph - N/A   Mostly Cloudy
3:50 PM 64.4 °F 53.6 °F 68% 30.04 in 6.2 mi ESE 4.6 mph - N/A   Mostly Cloudy
4:50 PM 64.4 °F 53.6 °F 68% 30.04 in 6.2 mi Calm Calm - N/A   Mostly Cloudy
5:50 PM 64.4 °F 53.6 °F 68% 30.04 in - SE 3.5 mph - N/A   Clear
6:50 PM 62.6 °F 53.6 °F 72% 30.06 in - ESE 4.6 mph - N/A   Clear
7:50 PM 60.8 °F 55.4 °F 82% 30.06 in - NE 4.6 mph - N/A   Clear
8:00 PM 62 °F 55 °F 71% 30.09 in 6 mi NE 4.6 mph - -   Clear
8:50 PM 60.8 °F 53.6 °F 77% 30.09 in - NW 3.5 mph - N/A   Clear
9:50 PM 59.0 °F 53.6 °F 82% 30.09 in - East 4.6 mph - N/A   Clear
10:50 PM 59.0 °F 53.6 °F 82% 30.06 in - ENE 3.5 mph - N/A   Clear
11:50 PM 59.0 °F 53.6 °F 82% 30.06 in - NE 3.5 mph - N/A   Clear